Misión y Visión

La misión es proporcionar información fiable a la navegación aérea, contribuyendo a la seguridad, regularidad y eficiencia de la Navegación Aérea Internacional

La visión es contribuir sustancialmente al desarrollo de conocimientos y a la utilización de la meteorología aeronáutica a nivel nacional e internacional, mediante la innovación y la coparticipación con sectores sociales y productivos de la sociedad.

 
  Inicio
  Metar
  Taf
  Wintemp
  SIGMET
  Avisos
  Pronósticos
  Carpeta Meteorologica
  Imágenes Satelitales
  Climatología Aeronáutica
   
  ¿Quienes Somos?
  Contacto
  Eventos



DIRECCIONES PARA INFORMES NACIONALES E INTERNACIONALES
(Metar /Speci - TAF)



http://adds.aviationweather.gov/tafs/index.php

http://www.ogimet.com/metars.phtml



PRONÓSTICOS DE AERÓDROMO

Cuando sea necesario, el encabezamiento abreviado puede incluir un cuarto grupo consistente en tres letras para identificar los boletines demorados (RRA), corregidos(CCA) o enmendados (AAA). Los boletines adicionales demorados, corregidos o enmendados deben identificarse con las letras RRB, RRC, etc.; CCB, CCC,etc.;AAB, AAC,etc.



ESTACIONES DESCRIPCION  
MPTO (M) 082100Z 20007KT 5000 TSRA FEW005 SCT014CB OVC070 24/24 Q1010 RWY WET TEMPO 6400 TS W/NE/OHD=  
MPBO (M)  
MPCH (M)  
MPSA (M)  
MPCE (M)  
MPPN (M) 082100Z 03008KT 9999 FEW012CB SCT018 BKN100 CB SE/TCU E/S/W=  
MPSM (M)  
MPJE (M)  
MPPA (M) 010100Z 00000KT 9999 FEW016 26/26 Q1010=  
MPMG (M) 010100Z 00000KT 9999 FEW016 27/25 Q1010 NOSIG RMK ST N=  
MPDA (M)  
MPVR (M)082100Z 00000KT 9999 SCT020CB BKN100 CB SE/W=  
MPWN (M)  
MPOA (M) 082100Z 35008KT 9999 FEW012CB SCT018 BKN100 CB SE/TCU E/S/W=  
MPMF (M)  
MPEJ (M) 082100Z 02004KT 9999 FEW015 SCT060 Q1009  


CLIMATICAS

MPTO

31-03-2016

PCPN

T° MAX

T° MIN

VIENTO MAX (KT)

HORA

VIENTO PREDOM (KT)

0.0

34.8

20.0

18015KT

1700Z

VRB 05KT

CLIMATICAS

MPMG

31-03-2016

PCPN

T° MAX

T° MIN

VIENTO MAX (KT)

HORA

VIENTO PREDOM (KT)

0.0

34.0

24.2

28011KT

2000Z NNW

 

 
 



























  Noticias AAC
  Directorio
  Contáctenos
  Historia
  Quejas y Sugerencias
  Etica y Transparencia

  Gestión SSP/SMS
  Seguridad Aérea
  Navegación Aérea
  Transporte Aéreo

  Tramites
  Áeronaves de Alquiler

  Meteorología
  I.S.F.P.A
  Notam
  Peligro Aviario
  AVSEC
  UPIA
  Permisos
 




DECLARACIÓN DE PRIVACIDAD